FW8128 Weather Reports


Display with metric or nautical units.
time (UTC)temp
F
wind
direction
speed
MPH
gust
MPH
rain 1hr
in
rain 24hr
in
rain mn
in
humidity
%
barometer
mb
20260906085808 71 315 1.0 4.0 0.00 0.03 0.00 100 1011.6
20260906085308 71 329 2.0 4.0 0.00 0.03 0.00 100 1011.6
20260906084753 71 319 1.0 4.0 0.00 0.03 0.00 100 1011.6
20260906084253 71 0 1.0 3.0 0.00 0.03 0.00 100 1011.5
20260906083738 71 321 0.0 2.0 0.00 0.03 0.00 100 1011.5
20260906083509 71 320 0.0 2.0 0.00 0.03 0.00 100 1011.5
20260906082724 71 0 0.0 2.0 0.00 0.03 0.00 100 1011.5
20260906082223 71 0 1.0 2.0 0.00 0.03 0.00 100 1011.4
20260906081726 71 317 1.0 3.0 0.00 0.03 0.00 100 1011.3
20260906081225 71 320 0.0 3.0 0.00 0.03 0.00 100 1011.3
20260906080725 71 315 0.0 2.0 0.00 0.03 0.00 100 1011.2
20260906080225 70 0 0.0 2.0 0.00 0.03 0.00 100 1011.2
20260906075724 70 330 0.0 2.0 0.00 0.03 0.00 100 1011.2
20260906075224 69 0 0.0 2.0 0.00 0.03 0.00 100 1011.1
20260906074724 69 0 0.0 2.0 0.00 0.03 0.00 100 1011.1
20260906074224 69 0 0.0 1.0 0.00 0.03 0.00 100 1011.2
20260906073724 69 0 0.0 0.0 0.00 0.03 0.00 100 1011.3
20260906073453 69 0 0.0 0.0 0.00 0.03 0.00 100 1011.3
20260906072942 69 0 0.0 0.0 0.00 0.03 0.00 100 1011.4
20260906072209 69 0 0.0 0.0 0.00 0.03 0.00 100 1011.4
20260906071709 69 0 0.0 0.0 0.00 0.03 0.00 100 1011.4
20260906071440 69 0 0.0 0.0 0.00 0.03 0.00 100 1011.4
20260906070941 70 0 0.0 0.0 0.00 0.03 0.00 100 1011.5
20260906070210 70 0 0.0 0.0 0.00 0.03 0.00 100 1011.5
20260906065710 70 0 0.0 0.0 0.00 0.03 0.00 100 1011.6
20260906065210 70 0 0.0 0.0 0.00 0.03 0.00 100 1011.6
20260906064710 70 0 0.0 0.0 0.00 0.03 0.00 100 1011.6
20260906064210 70 0 0.0 0.0 0.00 0.03 0.00 100 1011.7
20260906063710 70 0 0.0 0.0 0.00 0.03 0.00 100 1011.8
20260906063210 70 0 0.0 0.0 0.00 0.03 0.00 100 1011.8
20260906062710 70 0 0.0 0.0 0.00 0.03 0.00 100 1011.8
20260906062156 70 0 0.0 0.0 0.00 0.03 0.00 100 1011.8
20260906061655 70 0 0.0 0.0 0.00 0.03 0.00 100 1011.8
20260906061156 70 0 0.0 0.0 0.00 0.03 0.00 100 1011.8
20260906060655 70 0 0.0 0.0 0.00 0.03 0.00 100 1011.9
20260906060156 70 0 0.0 0.0 0.00 0.03 0.00 100 1011.9
20260906055927 70 0 0.0 0.0 0.00 0.03 0.00 100 1012.0
20260906055805 70 0 0.0 0.0 0.00 0.03 0.00 100 1012.0
20260906054656 70 0 0.0 0.0 0.00 0.03 0.00 100 1012.0
20260906054156 70 0 0.0 0.0 0.00 0.03 0.00 100 1012.0
20260906053659 71 0 0.0 0.0 0.00 0.03 0.00 100 1011.9
20260906053157 71 0 0.0 0.0 0.00 0.03 0.00 100 1011.9
20260906052657 71 0 0.0 0.0 0.00 0.03 0.00 100 1012.0
20260906052142 71 0 0.0 0.0 0.00 0.03 0.00 100 1012.1
20260906051643 71 0 0.0 0.0 0.00 0.03 0.00 100 1012.1
20260906051141 70 0 0.0 0.0 0.00 0.03 0.00 100 1012.2
20260906050912 71 0 0.0 0.0 0.00 0.03 0.00 100 1012.2
20260906050142 71 0 0.0 0.0 0.00 0.03 0.00 100 1012.2
20260906045642 71 0 0.0 0.0 0.00 0.03 0.00 100 1012.4
20260906045142 71 0 0.0 0.0 0.00 0.03 0.00 100 1012.4
20260906044642 71 0 0.0 0.0 0.00 0.03 0.00 100 1012.4
20260906044142 71 0 0.0 0.0 0.00 0.03 0.00 100 1012.5
20260906043913 71 0 0.0 0.0 0.00 0.03 0.00 100 1012.5
20260906043142 71 0 0.0 0.0 0.00 0.03 0.00 100 1012.4
20260906042642 71 0 0.0 0.0 0.00 0.03 0.00 100 1012.4
20260906042142 71 0 0.0 0.0 0.00 0.03 0.00 100 1012.4
20260906041859 71 0 0.0 0.0 0.00 0.03 0.00 100 1012.6
20260906041128 71 0 0.0 0.0 0.00 0.03 0.00 100 1012.6
20260906040627 71 0 0.0 0.0 0.00 0.03 0.00 100 1012.5
20260906040129 71 0 0.0 0.0 0.00 0.03 0.00 100 1012.5
20260906035628 71 0 0.0 2.0 0.00 0.03 0.03 100 1012.4
20260906035127 71 0 0.0 2.0 0.00 0.03 0.03 100 1012.4
20260906034627 71 0 0.0 0.0 0.00 0.03 0.03 100 1012.4
20260906034357 71 0 0.0 0.0 0.00 0.03 0.03 100 1012.4
20260906033627 71 0 0.0 0.0 0.00 0.03 0.03 100 1012.4
20260906033127 71 0 0.0 0.0 0.00 0.03 0.03 100 1012.5
20260906032626 71 0 0.0 0.0 0.00 0.03 0.03 100 1012.5
20260906032127 71 0 0.0 0.0 0.00 0.03 0.03 100 1012.5
20260906031858 71 0 0.0 0.0 0.00 0.03 0.03 100 1012.4
20260906031127 71 0 0.0 0.0 0.00 0.03 0.03 100 1012.4
20260906030626 71 0 0.0 0.0 0.00 0.03 0.03 100 1012.3
20260906030357 71 0 0.0 0.0 0.00 0.03 0.03 100 1012.3
20260906025627 71 0 0.0 2.0 0.00 0.03 0.03 100 1012.2
20260906025358 71 0 0.0 2.0 0.00 0.03 0.03 100 1012.1
20260906024627 71 0 0.0 0.0 0.00 0.03 0.03 100 1012.2
20260906024126 71 0 0.0 0.0 0.00 0.03 0.03 100 1012.2
20260906023627 71 0 0.0 0.0 0.00 0.03 0.03 100 1012.2
20260906023357 71 0 0.0 0.0 0.00 0.03 0.03 100 1012.2
20260906022626 71 0 0.0 0.0 0.00 0.03 0.03 100 1012.1
20260906022127 71 0 0.0 0.0 0.00 0.03 0.03 100 1012.2
20260906021858 71 0 0.0 0.0 0.00 0.03 0.03 100 1012.1
20260906021127 71 0 0.0 0.0 0.00 0.03 0.03 100 1012.1
20260906020628 71 0 0.0 0.0 0.00 0.03 0.03 100 1012.1
20260906020127 71 0 0.0 0.0 0.00 0.03 0.03 100 1011.9
20260906015859 71 0 0.0 0.0 0.00 0.03 0.03 100 1012.0
20260906015129 71 0 0.0 0.0 0.00 0.03 0.03 100 1012.0
20260906014858 71 0 0.0 0.0 0.00 0.03 0.03 100 1011.9
20260906014737 72 0 0.0 0.0 0.00 0.03 0.03 100 1012.0
20260906013855 72 0 0.0 0.0 0.00 0.03 0.03 100 1011.9
20260906013124 72 0 0.0 0.0 0.00 0.03 0.03 100 1011.9
20260906012624 72 0 0.0 0.0 0.00 0.03 0.03 100 1011.9
20260906012124 72 0 0.0 0.0 0.00 0.03 0.03 100 1011.7
20260906011624 72 0 0.0 0.0 0.00 0.03 0.03 100 1011.8
20260906011125 72 0 0.0 0.0 0.00 0.03 0.03 100 1011.8
20260906010625 72 0 0.0 0.0 0.00 0.03 0.03 100 1011.7
20260906010355 72 0 0.0 0.0 0.00 0.03 0.03 100 1011.7
20260906005625 73 0 0.0 0.0 0.00 0.03 0.03 100 1011.7
20260906005125 73 0 0.0 0.0 0.00 0.03 0.03 100 1011.7
20260906004622 73 0 0.0 0.0 0.00 0.03 0.03 100 1011.6
20260906004122 73 0 0.0 0.0 0.00 0.03 0.03 100 1011.5
20260906003854 73 0 0.0 0.0 0.00 0.03 0.03 100 1011.5
20260906003119 74 0 0.0 0.0 0.00 0.03 0.03 99 1011.6
20260906002619 74 0 0.0 0.0 0.00 0.03 0.03 99 1011.5
20260906002120 74 0 0.0 0.0 0.00 0.03 0.03 99 1011.6
20260906001625 75 0 0.0 0.0 0.00 0.03 0.03 98 1011.4
20260906001619 74 0 0.0 0.0 0.00 0.03 0.03 98 1011.5
20260906000851 75 0 0.0 0.0 0.00 0.03 0.03 98 1011.3
20260906000355 76 0 0.0 0.0 0.00 0.03 0.03 98 1011.3
20260905235620 76 0 0.0 0.0 0.00 0.03 0.03 97 1011.2
20260905235120 76 0 0.0 0.0 0.00 0.03 0.03 97 1011.2
20260905234620 77 0 0.0 0.0 0.00 0.03 0.03 96 1011.1
20260905234121 77 0 0.0 0.0 0.00 0.03 0.03 95 1011.0
20260905233621 78 0 0.0 0.0 0.00 0.03 0.03 94 1010.9
20260905233120 78 0 0.0 0.0 0.00 0.03 0.03 94 1010.8
20260905232617 78 0 0.0 0.0 0.00 0.03 0.03 93 1010.8
20260905232117 78 0 0.0 2.0 0.00 0.03 0.03 93 1010.8
20260905231618 78 0 1.0 4.0 0.00 0.03 0.03 92 1010.9
20260905231118 78 0 0.0 4.0 0.00 0.03 0.03 92 1010.9
20260905230618 78 0 0.0 3.0 0.00 0.03 0.03 94 1010.9
20260905230118 78 0 0.0 3.0 0.00 0.03 0.03 94 1010.9
20260905225618 78 0 0.0 2.0 0.00 0.03 0.03 94 1010.7
20260905225118 78 0 0.0 2.0 0.00 0.03 0.03 95 1010.6
20260905224849 78 310 0.0 2.0 0.00 0.03 0.03 94 1010.6
20260905224118 78 320 0.0 2.0 0.00 0.03 0.03 94 1010.6
20260905223618 78 0 0.0 2.0 0.00 0.03 0.03 94 1010.7
20260905223119 79 302 0.0 2.0 0.00 0.03 0.03 93 1010.6
20260905222849 79 0 0.0 0.0 0.00 0.03 0.03 92 1010.6
20260905222116 79 0 0.0 0.0 0.00 0.03 0.03 92 1010.7
20260905221616 79 0 0.0 2.0 0.00 0.03 0.03 91 1010.8
20260905221117 79 0 0.0 2.0 0.00 0.03 0.03 91 1010.9
20260905220616 78 315 0.0 2.0 0.00 0.03 0.03 91 1010.9
20260905220117 78 0 0.0 0.0 0.00 0.03 0.03 92 1011.1
20260905215616 78 0 0.0 0.0 0.00 0.03 0.03 92 1011.1
20260905215117 78 0 0.0 0.0 0.00 0.03 0.03 91 1011.0
20260905214616 78 0 0.0 2.0 0.00 0.03 0.03 92 1011.0
20260905214117 77 0 0.0 2.0 0.00 0.03 0.03 91 1011.1
20260905213616 77 0 0.0 0.0 0.00 0.03 0.03 93 1011.2
20260905213118 77 0 0.0 0.0 0.00 0.03 0.03 93 1011.3
20260905212617 77 0 0.0 0.0 0.00 0.03 0.03 93 1011.3
20260905212118 77 0 0.0 0.0 0.00 0.03 0.03 94 1011.3
20260905211613 77 0 0.0 2.0 0.00 0.03 0.03 94 1011.5
20260905211115 77 0 0.0 3.0 0.00 0.03 0.03 93 1011.6
20260905210614 76 309 0.0 3.0 0.00 0.03 0.03 93 1011.7
20260905210115 76 0 0.0 0.0 0.00 0.03 0.03 95 1011.6
20260905205614 76 0 0.0 0.0 0.00 0.03 0.03 96 1011.5
20260905205346 76 0 0.0 0.0 0.00 0.03 0.03 97 1011.6
20260905204614 75 0 0.0 2.0 0.00 0.03 0.03 98 1011.6
20260905204115 74 0 0.0 2.0 0.00 0.03 0.03 98 1011.4
20260905203845 74 0 0.0 2.0 0.00 0.03 0.03 98 1011.5
20260905203346 74 0 0.0 3.0 0.00 0.03 0.03 100 1011.5
20260905203223 73 0 1.0 5.0 0.00 0.03 0.03 100 1011.5
20260905202116 73 346 1.0 5.0 0.00 0.03 0.03 100 1011.5
20260905201612 73 330 0.0 3.0 0.00 0.03 0.03 100 1011.4
20260905201112 72 0 0.0 3.0 0.00 0.03 0.03 100 1011.4
20260905200611 72 0 1.0 3.0 0.00 0.03 0.03 100 1011.3
20260905200112 72 314 1.0 3.0 0.00 0.03 0.03 100 1011.2
20260905195612 72 17 1.0 3.0 0.00 0.03 0.03 100 1011.4
20260905195112 72 325 0.0 2.0 0.01 0.03 0.03 100 1011.4
20260905194842 72 0 1.0 4.0 0.03 0.03 0.03 100 1011.4
20260905194112 73 317 1.0 4.0 0.03 0.03 0.03 100 1011.5
20260905193841 73 288 1.0 4.0 0.03 0.03 0.03 99 1011.6
20260905193108 73 312 0.0 4.0 0.03 0.03 0.03 99 1011.5
20260905192606 73 0 1.0 4.0 0.03 0.03 0.03 98 1011.8
20260905192111 74 0 0.0 4.0 0.03 0.03 0.03 97 1011.8
20260905192105 73 290 1.0 4.0 0.03 0.03 0.03 98 1011.9
20260905191104 74 0 1.0 4.0 0.03 0.03 0.03 96 1012.1
20260905190601 75 211 1.0 5.0 0.03 0.03 0.03 95 1012.6
20260905185601 78 277 5.0 14.0 0.03 0.03 0.03 89 1012.8
20260905185101 82 304 7.0 14.0 0.02 0.02 0.02 83 1012.8
20260905184833 85 273 9.0 26.0 0.00 0.00 0.00 73 1012.0
20260905184059 89 114 9.0 26.0 0.00 0.00 0.00 63 1011.9
20260905183559 92 44 6.0 18.0 0.00 0.00 0.00 55 1011.7
20260905183100 95 352 3.0 11.0 0.00 0.00 0.00 58 1011.3
20260905182558 95 0 2.0 8.0 0.00 0.00 0.00 58 1010.4
20260905182058 96 339 2.0 8.0 0.00 0.00 0.00 56 1010.4
20260905181552 97 9 2.0 7.0 0.00 0.00 0.00 54 1010.4
20260905181054 97 290 3.0 9.0 0.00 0.00 0.00 55 1010.7
20260905180549 98 343 2.0 9.0 0.00 0.00 0.00 52 1010.8
20260905180051 97 207 2.0 7.0 0.00 0.00 0.00 54 1010.9
20260905175551 96 352 2.0 6.0 0.00 0.00 0.00 54 1010.9
20260905175051 95 298 2.0 9.0 0.00 0.00 0.00 57 1011.0
20260905174550 95 328 2.0 9.0 0.00 0.00 0.00 56 1011.0
20260905174051 96 0 2.0 6.0 0.00 0.00 0.00 57 1011.2
20260905173550 97 37 2.0 7.0 0.00 0.00 0.00 56 1011.4
20260905173057 97 2 2.0 7.0 0.00 0.00 0.00 55 1011.5
20260905173051 97 0 3.0 7.0 0.00 0.00 0.00 57 1011.4
20260905172322 97 235 2.0 8.0 0.00 0.00 0.00 55 1011.6
20260905171550 97 0 2.0 8.0 0.00 0.00 0.00 54 1011.6
20260905171050 97 0 1.0 4.0 0.00 0.00 0.00 57 1011.8
20260905170550 96 267 2.0 6.0 0.00 0.00 0.00 56 1011.9
20260905170050 96 0 2.0 6.0 0.00 0.00 0.00 59 1011.9
20260905165548 96 154 2.0 8.0 0.00 0.00 0.00 59 1011.9
20260905165048 95 0 2.0 8.0 0.00 0.00 0.00 59 1012.0
20260905164548 95 339 2.0 8.0 0.00 0.00 0.00 60 1012.1
20260905164046 95 50 3.0 7.0 0.00 0.00 0.00 59 1012.2
20260905163550 95 32 2.0 7.0 0.00 0.00 0.00 61 1012.2
20260905163545 95 16 3.0 7.0 0.00 0.00 0.00 60 1012.3
20260905162545 95 135 3.0 9.0 0.00 0.00 0.00 61 1012.4
20260905162045 95 352 2.0 9.0 0.00 0.00 0.00 61 1012.4
20260905161546 95 329 2.0 8.0 0.00 0.00 0.00 62 1012.5
20260905161315 95 159 2.0 5.0 0.00 0.00 0.00 62 1012.6
20260905160545 94 0 2.0 6.0 0.00 0.00 0.00 61 1012.7
20260905160043 94 0 2.0 8.0 0.00 0.00 0.00 61 1012.6
20260905155543 94 285 2.0 8.0 0.00 0.00 0.00 63 1012.6
20260905155313 94 236 2.0 6.0 0.00 0.00 0.00 61 1012.6
20260905154541 94 213 2.0 9.0 0.00 0.00 0.00 63 1012.6
20260905154041 93 238 2.0 9.0 0.00 0.00 0.00 64 1012.7
20260905153542 93 19 2.0 7.0 0.00 0.00 0.00 63 1012.8
20260905153042 93 108 2.0 6.0 0.00 0.00 0.00 65 1012.8
20260905152541 93 81 2.0 6.0 0.00 0.00 0.00 65 1012.9
20260905152042 93 340 1.0 6.0 0.00 0.00 0.00 64 1012.9
20260905151540 93 0 1.0 4.0 0.00 0.00 0.00 66 1012.9
20260905151040 92 101 1.0 5.0 0.00 0.00 0.00 66 1013.2
20260905150539 92 60 2.0 8.0 0.00 0.00 0.00 70 1013.2
20260905150041 92 14 2.0 8.0 0.00 0.00 0.00 67 1013.2
20260905145811 91 217 1.0 4.0 0.00 0.00 0.00 68 1013.3
20260905145038 91 0 1.0 4.0 0.00 0.00 0.00 69 1013.3
20260905144539 91 0 1.0 4.0 0.00 0.00 0.00 69 1013.3
20260905144038 90 0 1.0 4.0 0.00 0.00 0.00 71 1013.3
20260905143538 90 0 1.0 4.0 0.00 0.00 0.00 71 1013.3
20260905143037 89 0 2.0 6.0 0.00 0.00 0.00 73 1013.2
20260905142538 89 0 1.0 6.0 0.00 0.00 0.00 72 1013.3
20260905142038 89 60 0.0 4.0 0.00 0.00 0.00 73 1013.2
20260905141538 88 0 1.0 4.0 0.00 0.00 0.00 75 1013.2
20260905141038 87 231 1.0 4.0 0.00 0.00 0.00 75 1013.3
20260905140538 87 26 0.0 4.0 0.00 0.00 0.00 75 1013.3
20260905140038 87 0 1.0 4.0 0.00 0.00 0.00 76 1013.4
20260905135538 87 0 1.0 4.0 0.00 0.00 0.00 76 1013.5
20260905135307 86 164 1.0 4.0 0.00 0.00 0.00 78 1013.6
20260905134536 86 240 1.0 4.0 0.00 0.00 0.00 76 1013.7
20260905134035 85 0 0.0 4.0 0.00 0.00 0.00 78 1013.7
20260905133532 85 0 0.0 4.0 0.00 0.00 0.00 78 1013.7
20260905133032 85 224 0.0 4.0 0.00 0.00 0.00 80 1013.8
20260905132533 85 0 0.0 4.0 0.00 0.00 0.00 80 1013.8
20260905132032 84 0 1.0 3.0 0.00 0.00 0.00 80 1013.9
20260905131533 84 0 0.0 3.0 0.00 0.00 0.00 80 1013.9
20260905131033 84 0 0.0 1.0 0.00 0.00 0.00 81 1013.9
20260905130533 83 242 0.0 1.0 0.00 0.00 0.00 84 1014.0
20260905130033 82 0 0.0 1.0 0.00 0.00 0.00 86 1014.0
20260905125533 81 0 0.0 2.0 0.00 0.00 0.00 88 1014.0
20260905125033 80 0 0.0 2.0 0.00 0.00 0.00 90 1014.1
20260905124531 79 229 0.0 2.0 0.00 0.00 0.00 94 1014.1
20260905124030 78 0 0.0 0.0 0.00 0.00 0.00 98 1014.0
20260905123758 77 0 0.0 0.0 0.00 0.00 0.00 100 1014.0
20260905123027 75 0 0.0 0.0 0.00 0.00 0.00 100 1014.0
20260905122759 74 0 0.0 0.0 0.00 0.00 0.00 100 1014.1
20260905122027 73 0 0.0 0.0 0.00 0.00 0.00 100 1014.1
20260905121528 73 0 0.0 0.0 0.00 0.00 0.00 100 1014.0
20260905121027 72 0 0.0 0.0 0.00 0.00 0.00 100 1014.0
20260905120528 72 0 0.0 0.0 0.00 0.00 0.00 100 1014.0
20260905120259 72 0 0.0 0.0 0.00 0.00 0.00 100 1013.9
20260905115528 71 0 0.0 0.0 0.00 0.00 0.00 100 1013.9
20260905115028 71 0 0.0 0.0 0.00 0.00 0.00 100 1013.9
20260905114528 71 0 0.0 0.0 0.00 0.00 0.00 100 1013.8
20260905114028 71 0 0.0 0.0 0.00 0.00 0.00 100 1013.8
20260905113528 71 0 0.0 0.0 0.00 0.00 0.00 100 1013.6
20260905113013 71 0 0.0 0.0 0.00 0.00 0.00 100 1013.6
20260905112513 71 0 0.0 0.0 0.00 0.00 0.00 100 1013.4
20260905112245 71 0 0.0 0.0 0.00 0.00 0.00 100 1013.3
20260905111513 71 0 0.0 0.0 0.00 0.00 0.00 100 1013.3
20260905111019 71 0 0.0 0.0 0.00 0.00 0.00 100 1013.2
20260905111013 71 0 0.0 0.0 0.00 0.00 0.00 100 1013.2
20260905110013 71 0 0.0 2.0 0.00 0.00 0.00 100 1013.1
20260905105513 71 0 1.0 3.0 0.00 0.00 0.00 100 1013.1
20260905105014 71 0 1.0 3.0 0.00 0.00 0.00 100 1013.1
20260905104514 71 321 0.0 3.0 0.00 0.00 0.00 100 1013.1
20260905104014 71 0 0.0 0.0 0.00 0.00 0.00 100 1013.1
20260905103515 71 0 0.0 1.0 0.00 0.00 0.00 100 1012.9
20260905103015 71 309 0.0 1.0 0.00 0.00 0.00 100 1012.9
20260905102731 71 0 0.0 0.0 0.00 0.00 0.00 100 1012.9
20260905102231 71 0 0.0 0.0 0.00 0.00 0.00 100 1012.9
20260905101500 71 0 0.0 0.0 0.00 0.00 0.00 100 1012.9
20260905101232 71 0 0.0 0.0 0.00 0.00 0.00 100 1012.8
20260905100458 72 0 0.0 0.0 0.00 0.00 0.00 100 1012.8
20260905095958 72 0 0.0 0.0 0.00 0.00 0.00 100 1012.7
20260905095458 72 0 0.0 0.0 0.00 0.00 0.00 100 1012.7
20260905094957 72 0 0.0 0.0 0.00 0.00 0.00 100 1012.7
20260905094458 72 0 0.0 0.0 0.00 0.00 0.00 100 1012.7
20260905093957 72 0 0.0 0.0 0.00 0.00 0.00 100 1012.6
20260905093458 72 0 0.0 1.0 0.00 0.00 0.00 100 1012.6
20260905092958 72 0 0.0 1.0 0.00 0.00 0.00 100 1012.6
20260905092458 72 0 0.0 0.0 0.00 0.00 0.00 100 1012.6
20260905091958 72 0 0.0 0.0 0.00 0.00 0.00 100 1012.6
20260905091459 72 0 0.0 0.0 0.00 0.00 0.00 100 1012.6
20260905090959 72 0 0.0 0.0 0.00 0.00 0.00 100 1012.6